Miscellaneous Local Product
Issued by NWS North Platte, NE

Home | Current Version | Previous Version | Graphics & Text | Print | Product List | Glossary On
Versions: 1 2 3 4 5 6 7 8 9 10 11 12 13 14 15 16 17 18 19 20 21 22 23 24 25 26 27 28 29 30 31 32 33 34 35 36 37 38 39 40 41 42 43 44 45 46 47 48 49 50
883
AXUS43 KLBF 250010
MISLBF


WESTERN AND NORTH CENTRAL NEBRASKA HOURLY WEATHER ROUNDUP
NATIONAL WEATHER SERVICE NORTH PLATTE NE
700 PM CDT SUN JUL 24 2016

NOTE: "FAIR" INDICATES FEW OR NO CLOUDS BELOW 12,000 FEET WITH NO
SIGNIFICANT WEATHER AND/OR OBSTRUCTIONS TO VISIBILITY.

NOTE: STATIONS NOT REPORTING VARIABLES SUCH AS SKY/WEATHER OR
PRESSURE ARE PROVIDED BY RAWS AND APRS NETWORKS AND ARE NOT UNDER
NATIONAL WEATHER SERVICE QUALITY CONTROL.

...OBSERVATIONS IN AND NEAR THE EASTERN PANHANDLE OF NEBRASKA...

CITY           SKY/WX    TMP DP  RH WIND       PRES   REMARKS
PINE RIDGE     SUNNY     86  46  24 SE8G18    30.09F
CHADRON        SUNNY     88  48  25 S17       30.06F
ALLIANCE       CLOUDY    80  50  34 E17       30.12F
SIDNEY         LGT RAIN  71  60  68 S21G30    30.20S
$$

...OBSERVATIONS IN NORTHERN NEBRASKA AND FAR SOUTHERN SOUTH DAKOTA...

CITY           SKY/WX    TMP DP  RH WIND       PRES   REMARKS
WINNER         FAIR      87  46  24 N3        30.07R
VALENTINE      MOSUNNY   87  48  25 SE9       30.08S
THEDFORD       SUNNY     84  55  36 SE9       30.11S
AINSWORTH      CLOUDY    82  60  46 E7        30.09S
O`NEILL        SUNNY     81  55  40 SE7       30.07F
ORD            SUNNY     82  60  47 E7        30.06S
BROKEN BOW     SUNNY     80  61  52 E12       30.09S
VALENTINE NWR    N/A     84  54  35 NE6         N/A
BUTTE            N/A     80  55  41 NE3         N/A
HALSEY           N/A     84  54  35 E7          N/A
EWING            N/A     78  59  51 N3          N/A
$$

...OBSERVATIONS IN SOUTHWEST NEBRASKA AND FAR NORTHEAST COLORADO...

CITY           SKY/WX    TMP DP  RH WIND       PRES   REMARKS
WRAY           FAIR      90  54  29 E15G24    30.07R
HOLYOKE        FAIR      81  55  41 W14       30.13R
IMPERIAL       CLOUDY    85  55  35 E13       30.10R
OGALLALA       MOSUNNY   82  55  39 E8        30.13S
NORTH PLATTE   SUNNY     82  63  52 E9        30.09R
MCCOOK         SUNNY     85  58  39 E17       30.05R
LEXINGTON      SUNNY     83  59  43 E9        30.07S
STAPLETON        N/A     79  59  50 E3          N/A
GOTHENBURG       N/A     83  57  41 E8          N/A
CALLAWAY         N/A     82  66  57 E10         N/A
$$

...OBSERVATIONS IN CENTRAL LINCOLN COUNTY AREA...

CITY           SKY/WX    TMP DP  RH WIND       PRES   REMARKS
N.P. AIRPORT   SUNNY     82  63  52 E9        30.09R
N.P. DOWNTOWN    N/A     83  64  51 E6          N/A
N.P. SOUTHEAST   N/A     84  63  48 CALM        N/A
N.P. HILLCREST   N/A     81  62  51 E13G20      N/A
$$

...SOME OBSERVATIONS FROM AROUND THE REGION...

CITY           SKY/WX    TMP DP  RH WIND       PRES   REMARKS
DENVER         CLOUDY    73  47  39 E23G32    30.14R
LARAMIE        SUNNY     81  29  15 MISG      30.26S
CHEYENNE       CLOUDY    77  53  43 SE10      30.19F
SCOTTSBLUFF    CLOUDY    81  54  39 E20       30.10R
RAPID CITY     SUNNY     86  47  25 S8        30.08S
BISMARCK       SUNNY     84  56  38 N8        30.02S
PIERRE         SUNNY     86  47  25 NE7       30.03S
SIOUX FALLS    MOSUNNY   78  63  59 N9        30.03F
OMAHA          CLOUDY    84  64  50 E6        30.01S
GRAND ISLAND   SUNNY     85  60  42 NE14      30.05S
KANSAS CITY    CLOUDY    86  79  79 N10       29.96S HX  99
WICHITA        MOSUNNY   98  69  38 SE9       29.89S HX 104
OKLAHOMA CITY  MOSUNNY   96  67  38 SE12      29.91S HX 100
DALLAS         MOSUNNY   98  69  38 SE9       29.87F HX 104
AMARILLO       SUNNY     95  55  26 SE17      30.00F HX  93
DODGE CITY     CLOUDY    94  64  37 SE8       29.95F HX  95
HAYS           SUNNY     88  64  45 E20       29.98S
GOODLAND       LGT RAIN  88  61  40 E17       30.05S
$$




USA.gov is the U.S. government's official web portal to all federal, state and local government web resources and services.